www.pogodaiklimat.ru

Погода и климат >> Архив погоды >> Россия >> Коми >> Усть-Цильма


АРХИВ ПОГОДЫ в Усть-Цильме

Время (UTC), дата Ветер
(напр.,м/с)
 
Видим.   Явления Облачность Т
(С)
Тd
(С)
f
(%)
Тe
(С)
Тes
(С)
Комфортность P
(гПа)
Po
(гПа)
Тmin
(С)
Tmax
(С)
R
(мм)
R24
(мм)
S
(см)
03 15.03 ЮВ 3 20 км ясно -15.8 -16.4 95 -23 -23 1018.1 1007.4 -15.8 79
06 15.03 25 км ясно -12.4 -13.7 90 1017.9 1007.5
09 15.03 26 км 3/0
[Ci ing]
-6.0 -10.8 69 1017.4 1007.1
12 15.03 ЮВ 3 24 км ясно -2.0 -11.5 48 -6 -5 1016.4 1006.3
15 15.03 Ю 3 22 км ясно -5.8 -12.5 59 -11 -11 1015.8 1005.5 -1.6
18 15.03 Ю 4 10 км ясно -8.0 -12.6 69 -15 -15 1015.7 1005.3
21 15.03 Ю 4 10 км ясно -9.2 -12.7 76 -16 -16 1015.0 1004.7
00 16.03 Ю 4 10 км ясно -10.6 -12.6 85 -18 -18 1014.1 1003.8
03 16.03 ЮВ 4 20 км 8/0
[Ac trans]
-11.0 -12.3 90 -18 -18 1013.3 1003.0 -11.0 79
06 16.03 Ю 4 28 км 9/0
[As trans]
-7.6 -9.4 87 -14 -14 1013.0 1002.8
09 16.03 Ю 4 24 км 9/0
[As trans]
-2.7 -6.4 76 -9 -7 1012.8 1002.8
12 16.03 Ю 4 22 км 6/0
[Ac As Ci fib]
+0.8 -4.5 68 -4 -4 1012.8 1002.8
15 16.03 ЮВ 3 20 км 4/0
[Ci fib]
-1.8 -6.3 71 -7 -7 1013.6 1003.6 +1.1
18 16.03 ЮВ 3 10 км 6/0
[Cc]
-2.4 -6.0 76 -7 -7 1014.5 1004.5
21 16.03 Ю 3 10 км 8/0
[Cs]
-4.5 -7.6 79 -10 -10 1015.6 1005.3
00 17.03 ЮВ 3 10 км 8/0
[Cs]
-5.9 -8.6 81 -11 -11 1016.4 1006.1
03 17.03 Ю 3 21 км 8/0
[Ac trans]
-6.4 -6.9 96 -12 -12 1016.8 1006.5 -6.4 78
06 17.03 Ю 4 20 км 9/0
[Ac trans]
-4.2 -5.8 89 -11 -10 1017.2 1006.9
09 17.03 ЮВ 3 25 км 9/0
[Ci fib]
-0.4 -5.9 66 -5 -2 1017.2 1007.1
12 17.03 Ю 4 30 км 8/0
[Ci fib]
+1.1 -9.4 45 -3 -2 1016.7 1006.6
15 17.03 ЮЗ 3 20 км 9/0
[Ac trans Ci fib]
-2.1 -7.1 69 -7 -7 1017.4 1007.3 +2.1
18 17.03 Ю 3 10 км 6/0
[Ci fib]
-3.6 -5.7 85 -9 -9 1018.1 1007.8
21 17.03 Ю 2 10 км 10/10 930 м
[Sc]
-3.0 -4.0 93 -7 -7 1018.1 1007.8
00 18.03 Ю 3 10 км 10/10 960 м
[Sc]
-2.4 -3.0 96 -8 -8 1018.6 1008.5
03 18.03 ЮЗ 2 18 км 10/10 930 м
[Sc]
-2.0 -2.9 94 -6 -6 1018.8 1008.7 -4.1 77
06 18.03 ЮЗ 2 20 км {снег} 10/3 600 м
[Sc Ac und]
-1.4 -2.8 90 -5 -5 1019.2 1009.1
09 18.03 ЮЗ 3 26 км 10/0
[Ac und]
+0.3 -3.4 76 -4 -3 1020.1 1010.0
12 18.03 ЮЗ 3 23 км 10/0
[Ac und]
+2.0 -3.4 67 -2 -1 1019.8 1009.9
15 18.03 Ю 4 21 км 6/0
[Ac trans]
-0.1 -3.5 78 -5 -5 1019.9 1009.8 +2.4 0.0
18 18.03 Ю 4 10 км 3/0
[Ci fib]
-1.1 -3.7 82 -7 -7 1019.5 1009.4
21 18.03 Ю 4 10 км 10/10 660 м
[Sc]
-0.5 -3.2 82 -6 -6 1019.4 1009.3
00 19.03 Ю 5 10 км 10/10 900 м
[Sc]
-0.1 -2.7 83 -6 -6 1017.9 1007.8
03 19.03 Ю 5
{10}
21 км 10/10 600 м
[Sc]
-0.2 -2.2 86 -6 -6 1016.0 1005.9 -1.1 76
06 19.03 Ю 6
{10}
23 км 10/8 700 м
[Sc Ac und]
+0.9 -0.8 88 -6 -5 1014.1 1004.1
09 19.03 Ю 5
{11}
25 км 10/8 600 м
[Sc Ac und]
+2.3 -0.7 81 -3 -3 1012.5 1002.7
12 19.03 ЮЗ 3
{10}
25 км 10/6 720 м
[Sc Ac und]
+2.5 -0.2 82 -2 -1 1012.4 1002.6
15 19.03 Ю 3 22 км 10/6 1050 м
[Sc Ac und]
+2.4 0.0 84 -2 -2 1012.4 1002.6 +2.8
18 19.03 ЮЗ 3 10 км 10/8 1200 м
[Sc Ac und]
+2.0 -0.2 85 -2 -2 1012.7 1002.9
21 19.03 Ю 2 10 км 10/10 1300 м
[Sc]
+1.4 +0.9 96 -2 -2 1011.8 1001.8
00 20.03 ЮЗ 2 10 км 10/3 1000 м
[Sc Ac und]
+0.5 -0.1 96 -3 -3 1010.4 1000.4
03 20.03 Ю 1 14 км {снег} 9/5 540 м
[Cb calv Ac trans]
-0.2 -0.5 98 -2 -2 1009.7 999.7 -0.2 0.0 73
06 20.03 ЮЗ 3 20 км {снег} 9/6 420 м
[Sc Ac trans]
+1.2 -0.2 90 -3 -3 1008.9 998.9
09 20.03 З 3 21 км 9/8 800 м
[Sc Ac trans]
+2.9 -1.9 71 -1 -0 1007.6 997.8
12 20.03 З 2
{11}
18 км в посл. час ливневой снег 9/4 600 м
[Cb cap Ac trans]
+2.1 +0.8 91 -1 -1 1006.8 997.0
15 20.03 З 2 15 км {ливн. осадки} 9/6 840 м
[Cb cap Ac trans]
-0.2 -0.5 98 -4 -4 1007.4 997.4 +3.2 1
18 20.03 ЮЗ 2 10 км {ливн. осадки} 9/6 1000 м
[Sc Ac trans]
-0.8 -1.8 93 -5 -5 1007.5 997.5
21 20.03 10 км 10/6 630 м
[Sc Ac und]
-1.6 -3.0 90 1007.3 997.3
00 21.03 10 км 6/3 1000 м
[Sc Ci fib]
-3.0 -4.0 93 1007.7 997.5
03 21.03 нст 1 5000 м слаб. ливневой снег 9/8 400 м
[Cb cap Ci fib]
-3.4 -3.8 97 -6 -6 1007.8 997.6 -4.5 0.0 72
06 21.03 З 2 10 км в посл. час ливневой снег 9/4 600 м
[Cb cap Ac As]
-1.6 -2.4 94 -6 -5 1007.8 997.8
09 21.03 З 4
{10}
15 км в посл. час ливневой снег 9/4 600 м
[Cb cap Ac As]
-1.6 -5.3 76 -7 -7 1009.0 999.0
12 21.03 З 2 20 км {ливн. осадки} 9/6 1080 м
[Cb cap Ac As]
-0.2 -7.1 60 -3 -3 1009.4 999.4
15 21.03 ЮЗ 1 20 км {ливн. осадки} 9/8 540 м
[Cb cap Ac As]
-1.9 -4.3 84 -4 -4 1009.6 999.6 +0.2 0.0
18 21.03 Ю 1 4000 м слаб. снег 10/10 420 м
[Sc]
-2.5 -2.8 98 -5 -5 1009.0 999.0
21 21.03 ЮВ 1 10 км {снег} 10/10 450 м
[Sc]
-2.2 -2.5 98 -5 -5 1007.9 997.9
00 22.03 Ю 2 10 км {снег} 10/10 450 м
[Sc]
-1.9 -2.4 96 -6 -6 1007.2 997.2

 

Местоположение метеостанции Усть-Цильма (Коми, Россия): широта 65.43 долгота 52.27 высота над уровнем моря 79 м.

В архиве по умолчанию представлена погода в Усть-Цильме за последнюю неделю. Архивные данные за месяц целиком и за предыдущие месяцы, начиная с января 2011 года, Вы можете получить, выбрав интересующий диапазон дат из раскрывающегося списка и нажав кнопку "Ввод!".


*Определитесь, кто Вы:
робот инопланетянин человек

Внимание! Время в таблицах - всемирное. Для получения местного времени необходимо прибавить поправку, которая равна 3 ч.

Смотрите также архив погоды в соседних городах и на ближайших метеорологических станциях:

Погода в Ижме (Коми, Россия) (91 км)
Погода в Окуневом Носу (Коми, Россия) (92 км)
Погода в Мутном Материке (Коми, Россия) (145 км)
Погода в Кедва-Воме (Коми, Россия) (148 км)
Погода в Ираеле (Коми, Россия) (179 км)
Погода в Коткино (Ненецкий АО, Россия) (185 км)
Погода в Усть-Усе (Коми, Россия) (221 км)
Погода в Ухте (Коми, Россия) (222 км)
Погода в Печоре (Коми, Россия) (227 км)
Погода в Койнасе (Архангельская область, Россия) (229 км)

Пояснения к столбцам:

Ветер - указаны скорость ветра в м/с - средняя за 10 мин, порывы в срок и между сроками (в фигурных скобках) и направление, откуда дует ветер: С - северный, СВ - северо-восточный, В - восточный, ЮВ - юго-восточный, Ю - южный, ЮЗ - юго-западный, З - западный, СЗ - северо-западный.
Видимость - горизонтальная дальность видимости в метрах или километрах. При видимости от 1 до 10 км при отсутствии осадков обычно наблюдается дымка, при ухудшении видимости до 1 км и менее - туман. В сухую погоду видимость может ухудшаться дымом, пылью или мглою.
Явления - указаны атмосферные явления, наблюдавшиеся в срок или в последний час перед сроком; фигурными скобками обозначены явления, наблюдавшиеся между сроками (за 1-3 часа до срока); квадратными скобками обозначены град или гололедные отложения с указанием их диаметра в мм.
Облачность - указаны через наклонную черту общая и нижняя облачность в баллах и высота нижней границы облаков в метрах; квадратными скобками обозначены формы облаков: Ci - перистые, Cs - перисто-слоистые, Cc - перисто-кучевые, Ac - высококучевые, As - высокослоистые, Sc - слоисто-кучевые, Ns - слоисто-дождевые, Cu - кучевые, Cb - кучево-дождевые. Подробнее классификацию облаков см. в Атласе облаков (PDF).
T - Температура воздуха - температура, измеренная на высоте 2 м над землей.
Td - Температура точки росы - температура, при понижении до которой содержащийся в воздухе водяной пар достигнет насыщения.
f - Относительная влажность воздуха - влажноcть воздуха, измеренная на высоте 2 м над землей.
Te - Эффективная температура - температура, которую ощущает одетый по сезону человек в тени. Характеристика душности погоды. При расчете учитывается влияние влажности воздуха и скорости ветра на теплоощущения человека.
Tes - Эффективная температура на солнце - температура, которую ощущает человек, с поправкой на солнечный нагрев. Характеристика знойности погоды. Зависит от высоты солнца над горизонтом, облачности и скорости ветра. Ночью, в пасмурную погоду, а также при ветре 12 м/с и более поправка равна нулю.
P - Атмосферное давление - приведенное к уровню моря атмосферное давление.
Po - Атмосферное давление - измеренное на уровне метеостанции атмосферное давление.
Tmin - Минимальная температура - минимум температуры воздуха на высоте 2 м над землей.
Tmax - Максимальная температура - максимум температуры воздуха на высоте 2 м над землей.
R - Количество осадков - Количество выпавших осадков за период времени, мм. При наведении курсора мыши на число - период времени, за который выпало указанное количество осадков.
R24 - Количество осадков - Количество выпавших осадков за 24 часа, мм.
S - Снежный покров - Высота снежного покрова, см. При наведении курсора мыши на число - состояние снежного покрова и степень покрытия местности в баллах.